sat.trackr.live / text

‹ back to catalog

UNKNOWN

NORAD 85061

UNKNOWN UNKNOWN UNKNOWN

§ Identity

Operator
Country
Launch date
Launch site
Launch vehicle
Mass (kg)
RCS (m²)

External: N2YO · Heavens-Above

§ Orbital elements

Epoch: 2026-09-14T23:40:43.560192Z

Period
112.60 min
Inclination
102.4021°
Eccentricity
0.0274953
Mean motion
12.78823681 rev/d
Perigee alt
1,133.8 km
Apogee alt
1,558.6 km
Semi-major
7,724.3 km
B*
8.5975e-3
RAAN
272.6597°
Arg perigee
10.1973°
Mean anomaly
46.8731°
Rev number
59,107

§ Raw data

UNKNOWN1 85061U          26257.98661528  .00002203  00000+0  85975-2 0  99992 85061 102.4021 272.6597 0274953  10.1973  46.8731 12.78823681591078

JSON: /api/v1/satellites/85061 · /tle

For live sub-satellite position, see the globe view (requires WebGL).

§ Visibility from observer

Set your observer location to see the next 7 days of passes ≥ 10°. The values pass through the URL so the page stays shareable.

No JS? Fill the form by hand. The geolocation button needs JavaScript.